GW3565 Weather Reports


time (UTC)temp
C
wind
direction
speed
KPH
gust
KPH
rain 1hr
cm
rain 24hr
cm
rain mn
cm
humidity
%
barometer
mb
20260502190009 18 175 9.7 29.0 0.00 0.00 0.00 31 1008.6
20260502185507 19 162 16.1 29.0 0.00 0.00 0.00 32 1008.8
20260502185008 19 205 4.8 12.9 0.00 0.00 0.00 34 1008.8
20260502184510 19 282 3.2 11.3 0.00 0.00 0.00 34 1008.8
20260502184007 18 265 3.2 12.9 0.00 0.00 0.00 34 1008.8
20260502183507 18 194 3.2 14.5 0.00 0.00 0.00 36 1008.8
20260502183008 18 205 4.8 17.7 0.00 0.00 0.00 35 1008.9
20260502182509 18 159 8.0 17.7 0.00 0.00 0.00 34 1009.0
20260502182010 18 189 6.4 12.9 0.00 0.00 0.00 35 1009.3
20260502181527 18 196 4.8 12.9 0.00 0.00 0.00 35 1009.4
20260502181003 17 179 3.2 16.1 0.00 0.00 0.00 40 1009.5
20260502180508 17 255 4.8 19.3 0.00 0.00 0.00 38 1009.7
20260502170511 18 239 4.8 17.7 0.00 0.00 0.00 34 1010.3
20260502164006 19 213 6.4 14.5 0.00 0.00 0.00 33 1010.0
20260502163504 19 161 4.8 14.5 0.00 0.00 0.00 32 1009.9
20260502163013 18 175 8.0 17.7 0.00 0.00 0.00 33 1009.9
20260502162509 18 158 6.4 17.7 0.00 0.00 0.00 35 1010.0
20260502162011 18 185 4.8 12.9 0.00 0.00 0.00 34 1010.1
20260502161516 18 237 3.2 12.9 0.00 0.00 0.00 35 1010.1
20260502161009 18 143 6.4 16.1 0.00 0.00 0.00 36 1010.2
20260502160509 17 208 8.0 16.1 0.00 0.00 0.00 36 1010.3
20260502152007 13 157 4.8 11.3 0.00 0.00 0.00 48 1011.3
20260502151516 13 170 4.8 12.9 0.00 0.00 0.00 48 1011.3
20260502151004 13 182 6.4 12.9 0.00 0.00 0.00 49 1011.4
20260502150509 13 162 4.8 11.3 0.00 0.00 0.00 49 1011.4
20260502130504 7 182 9.7 19.3 0.00 0.00 0.00 58 1012.7
20260502123514 5 173 11.3 22.5 0.00 0.00 0.00 60 1013.0
20260502123004 5 171 8.0 16.1 0.00 0.00 0.00 61 1013.1
20260502122502 5 161 9.7 16.1 0.00 0.00 0.00 61 1013.2
20260502122006 5 173 8.0 16.1 0.00 0.00 0.00 61 1013.1
20260502121509 5 182 8.0 14.5 0.00 0.00 0.00 61 1013.2
20260502121004 5 167 6.4 16.1 0.00 0.00 0.00 61 1013.3
20260502120506 5 183 8.0 16.1 0.00 0.00 0.00 61 1013.4
20260502115510 4 170 6.4 16.1 0.00 0.00 0.00 61 1013.4
20260502115004 4 175 8.0 17.7 0.00 0.00 0.00 61 1013.5
20260502114512 4 177 9.7 19.3 0.00 0.00 0.00 60 1013.6
20260502114010 4 159 8.0 19.3 0.00 0.00 0.00 60 1013.6
20260502113504 5 172 9.7 16.1 0.00 0.00 0.00 59 1013.6
20260502113008 5 176 8.0 14.5 0.00 0.00 0.00 59 1013.7
20260502112508 5 178 8.0 20.9 0.00 0.00 0.00 58 1013.7
20260502112012 5 172 9.7 20.9 0.00 0.00 0.00 58 1013.7
20260502111503 5 182 9.7 22.5 0.00 0.00 0.00 58 1013.8
20260502111004 5 174 12.9 22.5 0.00 0.00 0.00 57 1013.9
20260502110508 5 182 8.0 25.7 0.00 0.00 0.00 58 1013.9
20260502110009 5 173 9.7 25.7 0.00 0.00 0.00 57 1014.0
20260502105504 5 171 8.0 19.3 0.00 0.00 0.00 57 1013.9
20260502105007 5 182 8.0 19.3 0.00 0.00 0.00 58 1013.8
20260502104515 5 176 9.7 19.3 0.00 0.00 0.00 58 1013.8
20260502104008 5 192 8.0 20.9 0.00 0.00 0.00 57 1014.0
20260502103505 5 181 11.3 20.9 0.00 0.00 0.00 57 1014.0
20260502103039 5 169 9.7 19.3 0.00 0.00 0.00 58 1014.1
20260502102508 4 186 9.7 19.3 0.00 0.00 0.00 58 1014.1
20260502102005 4 175 8.0 16.1 0.00 0.00 0.00 58 1014.2
20260502101516 4 169 8.0 16.1 0.00 0.00 0.00 58 1014.3
20260502101009 4 164 8.0 16.1 0.00 0.00 0.00 58 1014.4
20260502100504 4 179 8.0 12.9 0.00 0.00 0.00 58 1014.4
20260502091520 5 170 4.8 9.7 0.00 0.00 0.00 54 1015.3
20260502091004 5 199 6.4 11.3 0.00 0.00 0.00 54 1015.3
20260502090507 5 153 4.8 11.3 0.00 0.00 0.00 53 1015.4
20260502071518 6 163 6.4 11.3 0.00 0.00 0.00 49 1016.7
20260502071005 6 170 6.4 11.3 0.00 0.00 0.00 49 1016.7
20260502070510 6 162 6.4 11.3 0.00 0.00 0.00 49 1016.8
20260502070018 6 171 8.0 11.3 0.00 0.00 0.00 49 1016.9
20260502065509 6 150 6.4 11.3 0.00 0.00 0.00 49 1017.0
20260502065014 6 184 6.4 11.3 0.00 0.00 0.00 49 1017.0
20260502064518 6 188 4.8 11.3 0.00 0.00 0.00 49 1017.1
20260502064012 6 181 6.4 11.3 0.00 0.00 0.00 49 1017.2
20260502063510 6 166 6.4 11.3 0.00 0.00 0.00 49 1017.3
20260502063015 6 171 4.8 12.9 0.00 0.00 0.00 49 1017.2
20260502062510 6 169 6.4 12.9 0.00 0.00 0.00 49 1017.3
20260502062012 6 181 4.8 9.7 0.00 0.00 0.00 49 1017.3
20260502061528 6 171 4.8 11.3 0.00 0.00 0.00 49 1017.3
20260502061008 6 198 6.4 11.3 0.00 0.00 0.00 49 1017.4
20260502060505 6 171 6.4 9.7 0.00 0.00 0.00 49 1017.4
20260502060018 6 169 4.8 9.7 0.00 0.00 0.00 49 1017.4
20260502055507 6 173 4.8 8.0 0.00 0.00 0.00 48 1017.5
20260502055009 6 165 4.8 9.7 0.00 0.00 0.00 48 1017.5
20260502054519 6 179 4.8 9.7 0.00 0.00 0.00 48 1017.5
20260502054009 6 165 6.4 9.7 0.00 0.00 0.00 48 1017.6
20260502053510 6 176 4.8 11.3 0.00 0.00 0.00 48 1017.6
20260502053022 6 168 6.4 11.3 0.00 0.00 0.00 48 1017.6
20260502052510 6 172 6.4 9.7 0.00 0.00 0.00 48 1017.6
20260502052012 6 171 6.4 9.7 0.00 0.00 0.00 48 1017.6
20260502051522 6 165 4.8 9.7 0.00 0.00 0.00 48 1017.7
20260502051009 6 164 4.8 11.3 0.00 0.00 0.00 49 1017.7
20260502050504 6 171 4.8 11.3 0.00 0.00 0.00 49 1017.7
20260502050006 5 161 3.2 8.0 0.00 0.00 0.00 50 1017.7
20260502045504 5 166 4.8 8.0 0.00 0.00 0.00 51 1017.7
20260502045004 5 140 1.6 6.4 0.00 0.00 0.00 52 1017.8
20260502044505 5 182 3.2 6.4 0.00 0.00 0.00 51 1017.8
20260502044005 5 138 1.6 6.4 0.00 0.00 0.00 52 1017.8
20260502043502 5 158 3.2 6.4 0.00 0.00 0.00 53 1017.9
20260502043002 5 169 3.2 6.4 0.00 0.00 0.00 53 1017.9
20260502042502 5 155 0.0 4.8 0.00 0.00 0.00 55 1017.8
20260502042003 5 153 1.6 3.2 0.00 0.00 0.00 55 1017.9
20260502041505 5 153 1.6 3.2 0.00 0.00 0.00 54 1017.9
20260502041005 5 153 0.0 3.2 0.00 0.00 0.00 54 1017.9
20260502040502 5 153 0.0 1.6 0.00 0.00 0.00 52 1017.9
20260502040008 6 153 0.0 1.6 0.00 0.00 0.00 53 1018.0
20260502035502 6 153 0.0 1.6 0.00 0.00 0.00 55 1017.9
20260502035004 6 153 0.0 1.6 0.00 0.00 0.00 56 1018.0
20260502034504 6 153 0.0 3.2 0.00 0.00 0.00 55 1018.0
20260502034004 6 153 1.6 3.2 0.00 0.00 0.00 50 1018.0
20260502033504 6 142 0.0 1.6 0.00 0.00 0.00 49 1018.0
20260502033010 6 142 0.0 0.0 0.00 0.00 0.00 49 1018.0
20260502032501 6 142 0.0 0.0 0.00 0.00 0.00 49 1018.0
20260502032001 6 142 0.0 1.6 0.00 0.00 0.00 50 1018.0
20260502031505 7 142 0.0 1.6 0.00 0.00 0.00 51 1018.0
20260502031002 7 142 0.0 1.6 0.00 0.00 0.00 51 1018.0
20260502030504 7 142 0.0 1.6 0.00 0.00 0.00 46 1018.1
20260502030010 7 142 0.0 1.6 0.00 0.00 0.00 44 1018.2
20260502025505 7 158 0.0 1.6 0.00 0.00 0.00 43 1018.2
20260502025002 7 158 0.0 1.6 0.00 0.00 0.00 43 1018.2
20260502024508 7 158 0.0 1.6 0.00 0.00 0.00 43 1018.1
20260502024005 7 158 0.0 1.6 0.00 0.00 0.00 43 1018.2
20260502023504 8 158 0.0 1.6 0.00 0.00 0.00 43 1018.1
20260502023008 8 158 0.0 1.6 0.00 0.00 0.00 43 1018.1
20260502022505 8 158 0.0 1.6 0.00 0.00 0.00 43 1018.1
20260502022004 8 247 0.0 1.6 0.00 0.00 0.00 44 1018.1
20260502021505 8 247 0.0 1.6 0.00 0.00 0.00 39 1018.1
20260502021004 9 247 0.0 1.6 0.00 0.00 0.00 38 1018.1
20260502020502 9 247 0.0 0.0 0.00 0.00 0.00 37 1018.1
20260502020006 9 247 0.0 0.0 0.00 0.00 0.00 37 1018.1
20260502015507 10 247 0.0 0.0 0.00 0.00 0.00 35 1018.2
20260502015010 10 247 0.0 0.0 0.00 0.00 0.00 35 1018.1
20260502014510 10 247 0.0 0.0 0.00 0.00 0.00 34 1018.1
20260502014006 10 247 0.0 0.0 0.00 0.00 0.00 33 1018.1
20260502013506 11 247 0.0 0.0 0.00 0.00 0.00 33 1018.2
20260502013010 11 247 0.0 0.0 0.00 0.00 0.00 32 1018.1
20260502012504 11 247 0.0 0.0 0.00 0.00 0.00 32 1018.2
20260502012006 11 247 0.0 0.0 0.00 0.00 0.00 32 1018.2
20260502011510 11 247 0.0 1.6 0.00 0.00 0.00 32 1018.2
20260502011005 12 246 0.0 3.2 0.00 0.00 0.00 32 1018.2
20260502010504 12 78 0.0 3.2 0.00 0.00 0.00 32 1018.2
20260502010009 12 212 0.0 3.2 0.00 0.00 0.00 32 1018.2
20260502005505 12 198 0.0 3.2 0.00 0.00 0.00 30 1018.2
20260502005003 12 269 0.0 4.8 0.00 0.00 0.00 32 1018.3
20260502004507 12 274 3.2 4.8 0.00 0.00 0.00 31 1018.4
20260502004005 12 235 0.0 4.8 0.00 0.00 0.00 30 1018.5
20260502003507 12 267 0.0 8.0 0.00 0.00 0.00 30 1018.4
20260502003009 12 302 0.0 8.0 0.00 0.00 0.00 30 1018.4
20260502002506 12 340 1.6 4.8 0.00 0.00 0.00 29 1018.4
20260502002007 12 304 0.0 4.8 0.00 0.00 0.00 29 1018.4
20260502001513 12 338 3.2 4.8 0.00 0.00 0.00 29 1018.5
20260502001004 13 60 1.6 4.8 0.00 0.00 0.00 29 1018.5
20260502000508 13 360 1.6 6.4 0.00 0.00 0.00 29 1018.5
20260502000013 13 330 4.8 6.4 0.00 0.00 0.00 28 1018.5
20260501235510 13 346 1.6 4.8 0.00 0.00 0.00 28 1018.5
20260501235008 13 317 1.6 6.4 0.00 0.00 0.00 29 1018.6
20260501234513 13 55 1.6 8.0 0.00 0.00 0.00 28 1018.6
20260501234005 13 289 3.2 8.0 0.00 0.00 0.00 30 1018.7
20260501233507 13 286 1.6 11.3 0.00 0.00 0.00 30 1018.6
20260501233010 13 257 4.8 11.3 0.00 0.00 0.00 29 1018.7
20260501232508 13 163 4.8 8.0 0.00 0.00 0.00 29 1018.7
20260501232005 13 236 3.2 9.7 0.00 0.00 0.00 30 1018.7
20260501231510 13 322 3.2 9.7 0.00 0.00 0.00 30 1018.7
20260501231006 13 352 4.8 9.7 0.00 0.00 0.00 29 1018.8
20260501230507 13 260 1.6 14.5 0.00 0.00 0.00 28 1018.7
20260501230017 13 336 4.8 14.5 0.00 0.00 0.00 28 1018.8
20260501225505 13 350 1.6 12.9 0.00 0.00 0.00 28 1018.8
20260501225007 13 323 1.6 8.0 0.00 0.00 0.00 29 1018.8
20260501224513 13 262 3.2 11.3 0.00 0.00 0.00 27 1018.9
20260501224005 13 288 4.8 11.3 0.00 0.00 0.00 27 1018.8
20260501223506 13 360 3.2 9.7 0.00 0.00 0.00 29 1018.9
20260501223031 13 276 4.8 9.7 0.00 0.00 0.00 29 1018.9
20260501222506 13 329 3.2 16.1 0.00 0.00 0.00 29 1018.9
20260501222006 13 352 3.2 16.1 0.00 0.00 0.00 27 1018.9
20260501221511 13 329 4.8 14.5 0.00 0.00 0.00 27 1018.8
20260501221007 13 277 1.6 8.0 0.00 0.00 0.00 27 1018.8
20260501220506 14 210 1.6 12.9 0.00 0.00 0.00 26 1018.9
20260501220014 14 334 4.8 12.9 0.00 0.00 0.00 26 1019.0
20260501215505 14 340 3.2 9.7 0.00 0.00 0.00 29 1019.1
20260501215007 14 352 1.6 4.8 0.00 0.00 0.00 30 1019.2
20260501214527 14 348 0.0 4.8 0.00 0.00 0.00 30 1019.2
20260501214009 14 246 1.6 6.4 0.00 0.00 0.00 27 1019.2
20260501213506 13 64 1.6 12.9 0.00 0.00 0.00 27 1019.3
20260501213012 13 182 1.6 12.9 0.00 0.00 0.00 30 1019.3
20260501212506 13 156 3.2 9.7 0.00 0.00 0.00 31 1019.4
20260501212008 13 352 1.6 11.3 0.00 0.00 0.00 30 1019.4
20260501211520 13 24 3.2 14.5 0.00 0.00 0.00 29 1019.4
20260501211008 13 333 4.8 14.5 0.00 0.00 0.00 28 1019.4
20260501210506 13 332 6.4 14.5 0.00 0.00 0.00 29 1019.5
20260501210017 13 323 1.6 12.9 0.00 0.00 0.00 29 1019.5
20260501205508 13 71 3.2 16.1 0.00 0.00 0.00 28 1019.6
20260501205006 13 340 6.4 16.1 0.00 0.00 0.00 29 1019.7
20260501204519 13 166 3.2 11.3 0.00 0.00 0.00 29 1019.8
20260501204006 12 270 1.6 8.0 0.00 0.00 0.00 30 1019.8
20260501203506 12 119 0.0 8.0 0.00 0.00 0.00 29 1019.8
20260501203027 12 44 3.2 16.1 0.00 0.00 0.00 29 1019.9
20260501202507 13 333 6.4 16.1 0.00 0.00 0.00 28 1020.0
20260501202014 13 30 1.6 9.7 0.00 0.00 0.00 31 1020.0
20260501201518 13 113 1.6 9.7 0.00 0.00 0.00 31 1020.1
20260501201015 13 315 1.6 11.3 0.00 0.00 0.00 32 1020.1
20260501200506 13 340 1.6 11.3 0.00 0.00 0.00 31 1020.1
20260501200010 13 198 3.2 11.3 0.00 0.00 0.00 32 1020.1
20260501195502 13 211 4.8 11.3 0.00 0.00 0.00 35 1020.2
20260501195002 12 193 1.6 11.3 0.00 0.00 0.00 34 1020.2
20260501194512 12 204 3.2 12.9 0.00 0.00 0.00 34 1020.2
20260501194008 12 209 6.4 14.5 0.00 0.00 0.00 34 1020.1
20260501193503 12 249 6.4 14.5 0.00 0.00 0.00 33 1020.3
20260501193004 12 196 3.2 16.1 0.00 0.00 0.00 34 1020.2
20260501192502 12 336 4.8 16.1 0.00 0.00 0.00 33 1020.3
20260501192003 12 302 4.8 11.3 0.00 0.00 0.00 35 1020.3
20260501191505 11 293 4.8 9.7 0.00 0.00 0.00 38 1020.4
20260501191004 11 360 4.8 9.7 0.00 0.00 0.00 35 1020.4
20260501190507 11 352 3.2 9.7 0.00 0.00 0.00 36 1020.5